| time (UTC) | temp F | wind direction | speed knots | gust knots | rain 1hr in | rain 24hr in | rain mn in | humidity % | barometer mb |
| 20260507094414 | 67 | 13 | 0.0 | 1.7 | 0.00 | 0.00 | 0.00 | 80 | 1009.0 |
| 20260507093410 | 67 | 13 | 0.9 | 2.6 | 0.00 | 0.00 | 0.00 | 80 | 1009.0 |
| 20260507092410 | 67 | 20 | 0.0 | 3.5 | 0.00 | 0.00 | 0.00 | 80 | 1008.6 |
| 20260507091410 | 67 | 20 | 0.0 | 0.9 | 0.00 | 0.00 | 0.00 | 80 | 1008.8 |
| 20260507090410 | 67 | 20 | 0.9 | 4.3 | 0.00 | 0.00 | 0.00 | 79 | 1008.8 |
| 20260507085410 | 67 | 17 | 0.0 | 3.5 | 0.00 | 0.00 | 0.00 | 79 | 1009.1 |
| 20260507084410 | 67 | 17 | 0.0 | 2.6 | 0.00 | 0.00 | 0.00 | 79 | 1009.2 |
| 20260507083410 | 67 | 12 | 0.0 | 1.7 | 0.00 | 0.00 | 0.00 | 79 | 1009.2 |
| 20260507082410 | 67 | 12 | 1.7 | 3.5 | 0.00 | 0.00 | 0.00 | 79 | 1009.1 |
| 20260507081410 | 67 | 11 | 0.9 | 3.5 | 0.00 | 0.00 | 0.00 | 78 | 1009.0 |
| 20260507080410 | 67 | 13 | 1.7 | 2.6 | 0.00 | 0.00 | 0.00 | 78 | 1009.0 |
| 20260507075410 | 67 | 29 | 0.9 | 8.7 | 0.00 | 0.00 | 0.00 | 78 | 1009.0 |
| 20260507074410 | 67 | 25 | 0.9 | 5.2 | 0.00 | 0.00 | 0.00 | 78 | 1009.3 |
| 20260507073413 | 67 | 15 | 2.6 | 2.6 | 0.00 | 0.00 | 0.00 | 78 | 1009.3 |
| 20260507072410 | 67 | 15 | 0.0 | 1.7 | 0.00 | 0.00 | 0.00 | 78 | 1009.4 |
| 20260507071410 | 68 | 18 | 0.0 | 5.2 | 0.00 | 0.00 | 0.00 | 78 | 1009.6 |
| 20260507070409 | 68 | 19 | 0.9 | 6.1 | 0.00 | 0.00 | 0.00 | 78 | 1009.6 |
| 20260507065410 | 68 | 22 | 2.6 | 6.1 | 0.00 | 0.00 | 0.00 | 77 | 1009.5 |
| 20260507064410 | 68 | 0 | 1.7 | 4.3 | 0.00 | 0.00 | 0.00 | 78 | 1009.5 |
| 20260507063410 | 68 | 5 | 0.9 | 4.3 | 0.00 | 0.00 | 0.00 | 77 | 1009.5 |
| 20260507062410 | 68 | 5 | 0.0 | 2.6 | 0.00 | 0.00 | 0.00 | 77 | 1009.6 |
| 20260507061410 | 68 | 5 | 1.7 | 4.3 | 0.00 | 0.00 | 0.00 | 77 | 1009.0 |
| 20260507060410 | 68 | 338 | 1.7 | 3.5 | 0.00 | 0.00 | 0.00 | 77 | 1009.0 |
| 20260507055410 | 69 | 324 | 1.7 | 3.5 | 0.00 | 0.00 | 0.00 | 77 | 1009.1 |
| 20260507054411 | 69 | 323 | 0.9 | 3.5 | 0.00 | 0.00 | 0.00 | 77 | 1009.0 |
| 20260507053410 | 69 | 325 | 0.9 | 6.1 | 0.00 | 0.00 | 0.00 | 76 | 1009.0 |
| 20260507052410 | 69 | 16 | 0.0 | 2.6 | 0.00 | 0.00 | 0.00 | 76 | 1008.7 |
| 20260507051413 | 69 | 18 | 0.9 | 4.3 | 0.00 | 0.00 | 0.00 | 76 | 1009.1 |
| 20260507050413 | 70 | 17 | 0.9 | 3.5 | 0.00 | 0.00 | 0.00 | 76 | 1009.1 |
| 20260507045410 | 70 | 17 | 0.0 | 5.2 | 0.00 | 0.00 | 0.00 | 76 | 1009.1 |
| 20260507044409 | 70 | 338 | 0.0 | 4.3 | 0.00 | 0.00 | 0.00 | 75 | 1009.0 |
| 20260507043410 | 70 | 340 | 0.0 | 6.1 | 0.00 | 0.00 | 0.00 | 75 | 1009.0 |
| 20260507042410 | 71 | 286 | 2.6 | 5.2 | 0.00 | 0.00 | 0.00 | 74 | 1008.7 |
| 20260507041409 | 71 | 23 | 0.0 | 7.8 | 0.00 | 0.00 | 0.00 | 74 | 1009.0 |
| 20260507040413 | 71 | 331 | 1.7 | 6.1 | 0.00 | 0.00 | 0.00 | 73 | 1009.0 |
| 20260507035409 | 72 | 286 | 1.7 | 4.3 | 0.00 | 0.00 | 0.00 | 73 | 1009.0 |
| 20260507034410 | 72 | 323 | 5.2 | 5.2 | 0.00 | 0.00 | 0.00 | 73 | 1008.6 |
| 20260507033410 | 72 | 0 | 0.9 | 6.1 | 0.00 | 0.00 | 0.00 | 73 | 1008.6 |
| 20260507032409 | 73 | 281 | 2.6 | 7.8 | 0.00 | 0.00 | 0.00 | 73 | 1008.2 |
| 20260507031413 | 73 | 11 | 0.9 | 7.0 | 0.00 | 0.00 | 0.00 | 73 | 1007.9 |
| 20260507030409 | 73 | 317 | 0.0 | 3.5 | 0.00 | 0.00 | 0.00 | 73 | 1007.9 |
| 20260507025410 | 73 | 309 | 0.0 | 3.5 | 0.00 | 0.00 | 0.00 | 73 | 1007.7 |
| 20260507024410 | 74 | 308 | 1.7 | 5.2 | 0.00 | 0.00 | 0.00 | 73 | 1007.5 |
| 20260507023409 | 74 | 339 | 1.7 | 3.5 | 0.00 | 0.00 | 0.00 | 73 | 1007.5 |
| 20260507022410 | 74 | 339 | 1.7 | 5.2 | 0.00 | 0.00 | 0.00 | 72 | 1007.0 |
| 20260507021410 | 74 | 340 | 1.7 | 3.5 | 0.00 | 0.00 | 0.00 | 72 | 1006.9 |
| 20260507020409 | 75 | 9 | 2.6 | 5.2 | 0.00 | 0.00 | 0.00 | 72 | 1006.9 |
| 20260507015409 | 75 | 327 | 0.0 | 5.2 | 0.00 | 0.00 | 0.00 | 73 | 1006.6 |
| 20260507014410 | 75 | 280 | 0.9 | 2.6 | 0.00 | 0.00 | 0.00 | 73 | 1006.5 |
| 20260507013409 | 75 | 37 | 0.9 | 4.3 | 0.00 | 0.00 | 0.00 | 73 | 1006.5 |
| 20260507012409 | 76 | 310 | 0.0 | 3.5 | 0.00 | 0.00 | 0.00 | 72 | 1006.1 |
| 20260507011410 | 77 | 15 | 0.0 | 6.1 | 0.00 | 0.00 | 0.00 | 72 | 1006.0 |
| 20260507010413 | 77 | 286 | 1.7 | 6.1 | 0.00 | 0.00 | 0.00 | 72 | 1006.0 |
| 20260507005410 | 78 | 35 | 0.0 | 8.7 | 0.00 | 0.00 | 0.00 | 72 | 1005.6 |
| 20260507004409 | 79 | 333 | 3.5 | 4.3 | 0.00 | 0.00 | 0.00 | 71 | 1005.4 |
| 20260507003409 | 80 | 325 | 0.0 | 6.1 | 0.00 | 0.00 | 0.00 | 70 | 1005.4 |
| 20260507002409 | 82 | 334 | 0.0 | 4.3 | 0.00 | 0.00 | 0.00 | 68 | 1005.1 |
| 20260507001410 | 84 | 304 | 1.7 | 5.2 | 0.00 | 0.00 | 0.00 | 66 | 1004.6 |
| 20260507000410 | 86 | 213 | 0.0 | 2.6 | 0.00 | 0.00 | 0.00 | 69 | 1004.7 |
| 20260506235409 | 87 | 213 | 1.7 | 3.5 | 0.00 | 0.00 | 0.00 | 66 | 1004.5 |
| 20260506234409 | 87 | 213 | 0.0 | 0.9 | 0.00 | 0.00 | 0.00 | 66 | 1004.5 |
| 20260506233409 | 87 | 213 | 0.9 | 1.7 | 0.00 | 0.00 | 0.00 | 66 | 1004.5 |
| 20260506232413 | 87 | 213 | 0.9 | 1.7 | 0.00 | 0.00 | 0.00 | 65 | 1004.4 |
| 20260506231413 | 88 | 213 | 0.9 | 1.7 | 0.00 | 0.00 | 0.00 | 65 | 1004.2 |
| 20260506230409 | 88 | 213 | 0.0 | 1.7 | 0.00 | 0.00 | 0.00 | 65 | 1004.2 |
| 20260506225410 | 88 | 213 | 0.9 | 1.7 | 0.00 | 0.00 | 0.00 | 65 | 1004.1 |
| 20260506224409 | 88 | 213 | 2.6 | 3.5 | 0.00 | 0.00 | 0.00 | 64 | 1004.3 |
| 20260506223410 | 89 | 213 | 0.0 | 2.6 | 0.00 | 0.00 | 0.00 | 64 | 1004.3 |
| 20260506222410 | 89 | 213 | 0.9 | 2.6 | 0.00 | 0.00 | 0.00 | 63 | 1004.1 |
| 20260506221409 | 89 | 214 | 0.9 | 1.7 | 0.00 | 0.00 | 0.00 | 63 | 1004.1 |
| 20260506220409 | 89 | 214 | 1.7 | 2.6 | 0.00 | 0.00 | 0.00 | 63 | 1004.1 |
| 20260506215409 | 89 | 186 | 2.6 | 5.2 | 0.00 | 0.00 | 0.00 | 63 | 1004.1 |
| 20260506214410 | 89 | 186 | 2.6 | 4.3 | 0.00 | 0.00 | 0.00 | 64 | 1004.1 |
| 20260506213409 | 88 | 165 | 1.7 | 5.2 | 0.00 | 0.00 | 0.00 | 65 | 1004.1 |
| 20260506212410 | 88 | 181 | 1.7 | 3.5 | 0.00 | 0.00 | 0.00 | 67 | 1004.1 |
| 20260506211412 | 88 | 181 | 0.0 | 4.3 | 0.00 | 0.00 | 0.00 | 67 | 1004.5 |
| 20260506210409 | 88 | 180 | 0.0 | 4.3 | 0.00 | 0.00 | 0.00 | 66 | 1004.5 |
| 20260506205410 | 88 | 175 | 0.9 | 4.3 | 0.00 | 0.00 | 0.00 | 67 | 1004.6 |
| 20260506204412 | 87 | 177 | 1.7 | 3.5 | 0.00 | 0.00 | 0.00 | 69 | 1004.6 |
| 20260506203409 | 87 | 166 | 2.6 | 3.5 | 0.00 | 0.00 | 0.00 | 69 | 1004.6 |
| 20260506202409 | 86 | 166 | 0.9 | 4.3 | 0.00 | 0.00 | 0.00 | 71 | 1004.8 |
| 20260506201409 | 86 | 167 | 1.7 | 4.3 | 0.00 | 0.00 | 0.00 | 71 | 1004.9 |
| 20260506200409 | 86 | 161 | 0.0 | 4.3 | 0.00 | 0.00 | 0.00 | 70 | 1004.9 |
| 20260506195409 | 87 | 158 | 0.9 | 5.2 | 0.00 | 0.00 | 0.00 | 68 | 1004.9 |
| 20260506194409 | 87 | 159 | 0.9 | 3.5 | 0.00 | 0.00 | 0.00 | 68 | 1005.0 |
| 20260506193409 | 87 | 153 | 0.9 | 4.3 | 0.00 | 0.00 | 0.00 | 69 | 1005.0 |
| 20260506192409 | 87 | 152 | 0.9 | 6.1 | 0.00 | 0.00 | 0.00 | 69 | 1005.1 |
| 20260506191409 | 87 | 145 | 2.6 | 8.7 | 0.00 | 0.00 | 0.00 | 69 | 1005.4 |
| 20260506190412 | 87 | 165 | 4.3 | 4.3 | 0.00 | 0.00 | 0.00 | 70 | 1005.4 |
| 20260506185410 | 86 | 146 | 0.9 | 4.3 | 0.00 | 0.00 | 0.00 | 71 | 1005.6 |
| 20260506184409 | 85 | 151 | 1.7 | 3.5 | 0.00 | 0.00 | 0.00 | 73 | 1005.6 |
| 20260506183409 | 85 | 151 | 0.9 | 4.3 | 0.00 | 0.00 | 0.00 | 74 | 1005.6 |
| 20260506182409 | 85 | 151 | 4.3 | 4.3 | 0.00 | 0.00 | 0.00 | 75 | 1006.0 |
| 20260506181409 | 84 | 151 | 0.0 | 2.6 | 0.00 | 0.00 | 0.00 | 75 | 1006.2 |
| 20260506180409 | 84 | 151 | 0.0 | 1.7 | 0.00 | 0.00 | 0.00 | 76 | 1006.2 |
| 20260506175409 | 83 | 151 | 0.0 | 3.5 | 0.00 | 0.00 | 0.00 | 78 | 1006.6 |
| 20260506174412 | 83 | 151 | 0.0 | 1.7 | 0.00 | 0.00 | 0.00 | 78 | 1006.8 |
| 20260506173409 | 83 | 151 | 0.0 | 3.5 | 0.00 | 0.00 | 0.00 | 79 | 1006.8 |
| 20260506172409 | 82 | 151 | 1.7 | 3.5 | 0.00 | 0.00 | 0.00 | 79 | 1006.8 |
| 20260506171409 | 82 | 151 | 0.9 | 1.7 | 0.00 | 0.00 | 0.00 | 80 | 1007.0 |
| 20260506170409 | 82 | 151 | 0.0 | 4.3 | 0.00 | 0.00 | 0.00 | 81 | 1007.0 |
| 20260506165409 | 81 | 151 | 0.9 | 3.5 | 0.00 | 0.00 | 0.00 | 82 | 1007.0 |
| 20260506164409 | 81 | 151 | 2.6 | 4.3 | 0.00 | 0.00 | 0.00 | 82 | 1007.0 |
| 20260506163412 | 80 | 151 | 0.9 | 2.6 | 0.00 | 0.00 | 0.00 | 82 | 1007.0 |
| 20260506162409 | 80 | 151 | 0.0 | 3.5 | 0.00 | 0.00 | 0.00 | 82 | 1006.6 |
| 20260506161409 | 80 | 151 | 3.5 | 5.2 | 0.00 | 0.00 | 0.00 | 82 | 1006.5 |
| 20260506160409 | 80 | 150 | 0.0 | 4.3 | 0.00 | 0.00 | 0.00 | 83 | 1006.5 |
| 20260506155409 | 80 | 150 | 0.0 | 0.9 | 0.00 | 0.00 | 0.00 | 84 | 1006.4 |
| 20260506154409 | 80 | 150 | 0.0 | 3.5 | 0.00 | 0.00 | 0.00 | 84 | 1006.4 |
| 20260506153412 | 80 | 150 | 0.9 | 1.7 | 0.00 | 0.00 | 0.00 | 85 | 1006.4 |
| 20260506152409 | 79 | 150 | 0.0 | 0.9 | 0.00 | 0.00 | 0.00 | 86 | 1006.0 |
| 20260506151412 | 79 | 150 | 0.0 | 1.7 | 0.00 | 0.00 | 0.00 | 86 | 1006.0 |
| 20260506150409 | 79 | 150 | 0.9 | 3.5 | 0.00 | 0.00 | 0.00 | 87 | 1006.0 |
| 20260506145409 | 79 | 150 | 0.9 | 4.3 | 0.00 | 0.00 | 0.00 | 88 | 1005.6 |
| 20260506144409 | 78 | 150 | 0.9 | 4.3 | 0.00 | 0.00 | 0.00 | 89 | 1005.4 |
| 20260506143409 | 78 | 150 | 0.0 | 2.6 | 0.00 | 0.00 | 0.00 | 90 | 1005.4 |
| 20260506142409 | 78 | 150 | 0.0 | 2.6 | 0.00 | 0.00 | 0.00 | 91 | 1005.5 |
| 20260506141412 | 78 | 150 | 1.7 | 1.7 | 0.00 | 0.00 | 0.00 | 92 | 1005.5 |
| 20260506140409 | 77 | 150 | 1.7 | 4.3 | 0.00 | 0.00 | 0.00 | 92 | 1005.5 |
| 20260506135409 | 77 | 150 | 0.0 | 2.6 | 0.00 | 0.00 | 0.00 | 92 | 1005.5 |
| 20260506134409 | 77 | 150 | 0.0 | 2.6 | 0.00 | 0.00 | 0.00 | 93 | 1005.5 |
| 20260506133408 | 77 | 150 | 0.0 | 1.7 | 0.00 | 0.00 | 0.00 | 93 | 1005.5 |
| 20260506132410 | 76 | 150 | 0.9 | 0.9 | 0.00 | 0.00 | 0.00 | 93 | 1005.6 |
| 20260506131409 | 76 | 150 | 0.0 | 0.9 | 0.00 | 0.00 | 0.00 | 92 | 1005.6 |
| 20260506130413 | 76 | 150 | 0.0 | 1.7 | 0.00 | 0.00 | 0.00 | 92 | 1005.6 |
| 20260506125409 | 76 | 150 | 0.0 | 1.7 | 0.00 | 0.00 | 0.00 | 92 | 1005.6 |
| 20260506124408 | 76 | 150 | 1.7 | 1.7 | 0.00 | 0.00 | 0.00 | 92 | 1005.5 |
| 20260506123409 | 75 | 150 | 0.0 | 0.0 | 0.00 | 0.00 | 0.00 | 92 | 1005.5 |
| 20260506122412 | 75 | 150 | 0.0 | 1.7 | 0.00 | 0.00 | 0.00 | 92 | 1005.4 |
| 20260506121409 | 75 | 150 | 0.0 | 1.7 | 0.00 | 0.00 | 0.00 | 92 | 1005.2 |
| 20260506120409 | 75 | 150 | 0.0 | 1.7 | 0.00 | 0.00 | 0.00 | 91 | 1005.2 |
| 20260506115409 | 75 | 150 | 0.0 | 0.0 | 0.00 | 0.00 | 0.00 | 91 | 1005.0 |
| 20260506114409 | 75 | 150 | 0.0 | 0.9 | 0.00 | 0.00 | 0.00 | 91 | 1004.9 |
| 20260506113408 | 75 | 150 | 0.0 | 1.7 | 0.00 | 0.00 | 0.00 | 91 | 1004.9 |
| 20260506112409 | 75 | 150 | 1.7 | 1.7 | 0.00 | 0.00 | 0.00 | 91 | 1004.7 |
| 20260506111408 | 75 | 150 | 0.0 | 1.7 | 0.00 | 0.00 | 0.00 | 90 | 1004.5 |
| 20260506110408 | 75 | 150 | 0.0 | 4.3 | 0.00 | 0.00 | 0.00 | 90 | 1004.5 |
| 20260506105409 | 75 | 150 | 0.0 | 2.6 | 0.00 | 0.00 | 0.00 | 90 | 1004.4 |
| 20260506104409 | 75 | 150 | 0.0 | 0.0 | 0.00 | 0.00 | 0.00 | 89 | 1004.5 |
| 20260506103408 | 75 | 150 | 0.0 | 1.7 | 0.00 | 0.00 | 0.00 | 89 | 1004.5 |
| 20260506102409 | 75 | 150 | 0.0 | 0.0 | 0.00 | 0.00 | 0.00 | 89 | 1004.5 |
| 20260506101412 | 75 | 150 | 0.0 | 0.0 | 0.00 | 0.00 | 0.00 | 89 | 1004.5 |
| 20260506100412 | 76 | 150 | 0.0 | 2.6 | 0.00 | 0.00 | 0.00 | 89 | 1004.5 |
| 20260506095408 | 76 | 150 | 2.6 | 4.3 | 0.00 | 0.00 | 0.00 | 89 | 1004.2 |